THORAD AGENA D DEB, 5220

Orbit data source: Space-Track

THORAD AGENA D DEB, 5220 is space debris in SSO originally from a launch on Wed, 08 Apr 1970 UTC launched from the Air Force Western Test Range (AFWTR). Debris objects in space refer to the collection of defunct objects orbiting the Earth. Examples of debris include non-operational satellites, rocket bodies, and fragments generated from explosions, collisions, or faulty payload assembly.

Loading next visibility...
Identifier
5220, 1970-025KG
Orbit
SSO
Country
Flag of USUS
Related business
Manufacturer
Unknown
Mission
Spacecraft
Bus & Motor
Unknown
Mass
Unknown
Launch date (UTC)
1970-04-08 (56 years ago)
Launch vehicle
Unknown
Launch site
Air Force Western Test Range (AFWTR)
Object type
Payload
Rocket body
Debris
Shape & HBR
Unknown shape, 0.1 m
Radar Cross Section
Small (<0.1 m²)

Expand to show TLE details & history
Last TLE update: 22 hours ago

TLE from 22 hours ago
0 THORAD AGENA D DEB
1 05220U 70025KG  25352.67439789  .00000719  00000-0  19791-2 0  9999
2 05220  99.8478 248.6683 0391060  49.0432 341.2093 12.92514343608172
Epoch: 2025-12-18T16:11Z
TLE epoch observation values (Epoch: 2025-12-18T16:11:07.977Z)
Latitude
28.32259°
Longitude
-86.9816°
Altitude
1,012.166 km
Speed
7.482 km/s
True Right ascension
16h 13m 18s
True Declination
28° 11' 03"
Sunlit
Object was in daylight at epoch
Visualization orbit readout
Latitude
Unknown
Longitude
Unknown
Altitude
Unknown
Speed
Unknown
Apparent Right ascension
Unknown
Apparent Declination
Unknown
Sunlit
N/A
Visualization observer readout
Local Sidereal Time
13:06:46
Azimuth
Unknown
Elevation
Unknown
Doppler factor
Unknown
Orbital elements
Apogee altitude
1,588.77 km
Perigee altitude
989.112 km
Semi-major axis
7,667.078 km
Eccentricity
0.03911
Inclination
99.8478°
RAAN
248.6683°
Arg. of periapsis
49.0432°
True anomaly
339.69613°
Mean anomaly
341.2093°
Eccentric anomaly
340.45989°
Mean motion
3.23295 °/min
Orbital period
111.35 mins
BSTAR
0.0019791
Loading maneuver chart data...
Computing Atmospheric mass density...

Documentation

Showing up to 5 results
|